Regional Weather Roundup
Issued by NWS Wilmington, NC

Home | Current Version | Previous Version | Text Only | Print | Product List | Glossary On
Versions: 1 2 3 4 5 6 7 8 9 10 11 12 13 14 15 16 17 18 19 20 21 22 23 24 25 26 27 28 29 30 31 32 33 34 35 36 37 38 39 40 41 42 43 44 45 46 47 48 49 50
000
ASUS42 KILM 091913
RWRILM
RWRILM
REGIONAL HOURLY WEATHER ROUNDUP
NATIONAL WEATHER SERVICE WILMINGTON NC
200 PM EST TUE FEB 09 2016

NOTE: "FAIR" INDICATES FEW OR NO CLOUDS BELOW 12,000 FEET WITH NO
SIGNIFICANT WEATHER AND/OR OBSTRUCTIONS TO VISIBILITY.

...............WFO WILMINGTON COUNTY WARNING AREA...............

......COASTAL NC AND SC COUNTIES......

CITY           SKY/WX    TMP DP  RH WIND       PRES   REMARKS
WILMINGTON     MOSUNNY   48  26  42 W20G28    29.67F
N MYRTLE BEACH CLOUDY    45  26  47 W16G30    29.71S
MYRTLE BEACH   PTSUNNY   46  25  42 W12G21    29.74F

......INLAND NC AND SC COUNTIES.......

CITY           SKY/WX    TMP DP  RH WIND       PRES   REMARKS
LUMBERTON      CLOUDY    45  24  43 W18G26    29.67F
ELIZABETHTOWN  PTSUNNY   46  24  41 W20G30    29.68R
WHITEVILLE     PTSUNNY   44  24  45 W10G21    29.69S
FLORENCE       CLOUDY    42  23  46 W21G36    29.72S
DARLINGTON     CLOUDY    43  23  45 W13G22    29.72S
KINGSTREE      CLOUDY    43  23  45 W14G26    29.74F
HARTSVILLE     CLOUDY    41  23  48 W14G21    29.70F
BENNETTSVILLE  CLOUDY    45  27  49 W14G23    29.70R
CONWAY         CLOUDY    43  27  52 W6G20     29.73S
GEORGETOWN     CLOUDY    45  27  49 W17       29.75F
MARION         CLOUDY    43  25  49 SW22G28   29.72S

....................REST OF NORTH CAROLINA......................

.........EASTERN NC.........

CITY           SKY/WX    TMP DP  RH WIND       PRES   REMARKS
CAPE HATTERAS  PTSUNNY   47  34  60 W9G18     29.62F
JACKSONVILLE   PTSUNNY   45  27  49 W13G21    29.65R
MOREHEAD CITY  PTSUNNY   47  35  63 SW20G25   29.63F
KENANSVILLE    CLOUDY    43  28  54 W14       29.65S
NEW BERN       CLOUDY    46  31  55 W13G24    29.63F
ELIZABETH CITY CLOUDY    48  29  47 W14       29.57F

.........CENTRAL NC.........

CITY           SKY/WX    TMP DP  RH WIND       PRES   REMARKS
RALEIGH DURHAM PTSUNNY   42  23  46 W8        29.62F
ROCKY MOUNT    LGT RAIN  38  33  82 W9G23     29.61F WCI  31
ROANOKE RAPIDS NOT AVBL
FAYETTEVILLE   PTSUNNY   45  22  40 W21G28    29.65F
HOFFMAN        PTSUNNY   42  20  41 W18G25    29.67R

.........WESTERN NC.........

CITY           SKY/WX    TMP DP  RH WIND       PRES   REMARKS
CHARLOTTE      CLOUDY    38  15  39 W10G20    29.69F WCI  31
GREENSBORO     CLOUDY    38  16  40 W15G22    29.61F WCI  29
HICKORY        NOT AVBL
BOONE          NOT AVBL
ASHEVILLE      NOT AVBL

.....................REST OF SOUTH CAROLINA.....................

.........EASTERN SC.........

CITY           SKY/WX    TMP DP  RH WIND       PRES   REMARKS
CHARLESTON     PTSUNNY   45  25  45 W17G23    29.77F
BEAUFORT MCAS  CLOUDY    46  25  43 W14G26    29.81F
HILTON HEAD    CLOUDY    45  27  49 SW13G29   29.83F

.........CENTRAL SC.........

CITY           SKY/WX    TMP DP  RH WIND       PRES   REMARKS
COLUMBIA       CLOUDY    41  23  48 W22G29    29.77F
ORANGEBURG     CLOUDY    42  23  46 W21G26    29.77F
SUMTER SHAW    CLOUDY    41  23  48 W20G28    29.72F

.........WESTERN SC.........

CITY           SKY/WX    TMP DP  RH WIND       PRES   REMARKS
GREENVILLE     NOT AVBL
ROCK HILL      CLOUDY    38  18  44 W13G22    29.70F WCI  30
ANDERSON       CLOUDY    36  18  48 W17       29.76S WCI  26
CLEMSON        NOT AVBL
GREENWOOD      CLOUDY    38  19  46 W13G18    29.77F WCI  30


...................COASTAL AND OFFSHORE REPORTS..................

................LOCAL PIERS AND NC RESERVE................


STATION/POSITION TIME  SKY/WX   TEMP    WIND        PRES    VSBY
                                AIR SEA DIR/SP/G
                 (UTC)          (F)     (DEG/KT/KT) (MB)    (MI)
JOHNY MRCER PIER 1800            45 53  250/ 15/ 21 1003.5F
NC RESRV MASNBRO NOT AVBL
OCEAN CREST PIER NOT AVBL
SPRINGMAID  PIER 1800            43 50  240/ 17/ 26 1006.5F


................COASTAL AND OFFSHORE BUOYS................


STATION/POSITION TIME  SKY/WX   TEMP    WIND        PRES    VSBY
                                AIR SEA DIR/SP/G
                 (UTC)          (F)     (DEG/KT/KT) (MB)    (MI)
DIMNDSHOAL 41025 1850            47 73  290/ 17/ 27 1002.7F
WVE H/P(F/S)= 11/14 SWL H/P/D(F/S/D)= 10/ 80/14

CAPE LOOKOUT     NOT AVBL
ONSLOW BAY 41036 NOT AVBL
ONSLOW BAY 41064 1808            46 61              1004.1F
ONSLOW BAY 41159 1825               60                N/A
WVE H/P(F/S)=  9/ 7 SWL H/P/D(F/S/D)=  3/100/14

5SE WRITBC 41038 1808            45 51  270/ 17/ 23 1004.9F
MASNBO INL 41110 1806               51                N/A
WVE H/P(F/S)=  4/15 SWL H/P/D(F/S/D)=  2/100/15

WILM HARBR 41108 1826               53                N/A
WVE H/P(F/S)=  7/ 7 SWL H/P/D(F/S/D)=  2/140/11

27SE WRITB 41037 1808            47     360/ 21/ 33 1004.5
FRYING PAN 41013 1800            46 54  250/ 23/ 31 1006.5F
SUNST NRSH 41024 NOT AVBL
CAPRS NRSH 41029 1808            46     270/ 19/ 25 1007.8F
EDISTO     41004 1850            47 65  250/ 25/ 33 1007.5F
WVE H/P(F/S)=  8/ 7 SWL H/P/D(F/S/D)=  2/14



..........OFFSHORE BUOYS BEYOND 100 NM OFFSHORE...........
.....IN A TRIANGLE---HAT TO BERMUDA TO BAHAMAS TO HAT.....


STATION/POSITION TIME  SKY/WX   TEMP    WIND        PRES    VSBY
                                AIR SEA DIR/SP/G
                 (UTC)          (F)     (DEG/KT/KT) (MB)    (MI)
150E HAT   41001 1800            59 71  260/ 29/ 37 1001.3F
W BERMUDA  41048 1850            65 70  260/ 27/ 37 1006.5R
WVE H/P(F/S)= 17/10 SWL H/P/D(F/S/D)= 13/240/10

ATLANTIC S 41049 1850            76 76  200/ 17/ 21 1017.5F
WVE H/P(F/S)= 11/14 SWL H/P/D(F/S/D)= 10/290/14

E BAHAMAS  41046 1850            72 79  220/  6/ 10 1018.3S
WVE H/P(F/S)= 10/14 SWL H/P/D(F/S/D)= 10/330/14

NE BAHAMAS 41047 1850            73 75  240/ 25/ 29 1013.4F
WVE H/P(F/S)= 11/ 8 SWL H/P/D(F/S/D)=  5/330/11

120E CANVRL41010 1820            57 72              1014.1F

END



USA.gov is the U.S. government's official web portal to all federal, state and local government web resources and services.